�P�ʁF[MW],,,,,,,,,,,
�ݔ�No.,2,3,11,13,15,20,21,23,26,29,31
�d��[kV],66,66,,33,33,,33,33,66,,33
�ݔ���,�Y�͐�,�o��x��,�Ó��ϓd���@�A���p�ψ���,������,������,�Y�͕ϓd���@�A���p�ψ���,�l����,������,�Y�͓���,�y���ϓd���@�A���p�ψ���,�������
���d�[,�k�Ó��ϓd��,�o��x������,66kV,�Ó��ϓd��,���Ó��ϓd��,66kV,�Y�͕ϓd��,�Y�͕ϓd��,�Y�͕ϓd��,66kV,�y���ϓd��
��d�[,�o��x������,�o��J��,33kV,���Ó��ϓd��,�O�Εϓd��,33kV,�l���ϓd��,�{�˕ϓd��,�y���ϓd��,33kV,������ϓd��
2022/4/1 0:00,14,-3,2,2,1,3,3,1,-7,-7,3
2022/4/1 1:00,14,-3,2,2,1,3,2,1,-7,-7,3
2022/4/1 2:00,14,-3,2,2,1,3,2,1,-8,-8,2
2022/4/1 3:00,16,-3,2,2,1,4,3,1,-8,-8,2
2022/4/1 4:00,17,-3,2,2,1,4,3,1,-8,-8,2
2022/4/1 5:00,19,-3,2,3,1,4,3,1,-7,-7,2
2022/4/1 6:00,18,-3,2,2,1,4,3,1,-7,-7,3
2022/4/1 7:00,12,-5,2,2,1,4,3,1,-8,-8,2
2022/4/1 8:00,-2,-8,2,2,1,2,2,0,-9,-9,1
2022/4/1 9:00,-10,-10,2,2,1,1,2,0,-9,-9,1
2022/4/1 10:00,-14,-11,2,2,1,1,2,0,-8,-8,1
2022/4/1 11:00,-15,-10,2,2,1,1,1,0,-8,-8,1
2022/4/1 12:00,-13,-10,2,2,1,1,1,0,-8,-8,1
2022/4/1 13:00,1,-7,2,2,1,2,2,0,-8,-8,1
2022/4/1 14:00,3,-5,2,2,1,2,2,0,-8,-8,1
2022/4/1 15:00,1,-7,2,2,1,2,1,0,-8,-8,1
2022/4/1 16:00,5,-7,2,2,1,3,2,1,-8,-8,1
2022/4/1 17:00,12,-4,2,2,1,4,3,1,-7,-7,2
2022/4/1 18:00,17,-3,2,3,1,4,3,1,-7,-7,2
2022/4/1 19:00,20,-3,3,3,1,4,3,1,-7,-7,3
2022/4/1 20:00,19,-3,2,3,1,4,3,1,-7,-7,3
2022/4/1 21:00,18,-3,3,3,1,4,3,1,-7,-7,3
2022/4/1 22:00,16,-3,2,2,1,4,3,1,-7,-7,2
2022/4/1 23:00,14,-3,2,2,1,4,3,1,-8,-8,2
2022/4/2 0:00,15,-3,2,2,1,4,3,1,-8,-8,2
2022/4/2 1:00,15,-3,2,2,1,3,3,1,-8,-7,2
2022/4/2 2:00,16,-3,2,2,1,4,3,1,-8,-8,2
2022/4/2 3:00,17,-3,2,2,1,4,3,1,-8,-8,2
2022/4/2 4:00,18,-3,2,2,1,4,3,1,-7,-7,2
2022/4/2 5:00,19,-3,2,3,1,4,3,1,-7,-7,3
2022/4/2 6:00,19,-3,2,2,1,4,3,1,-7,-7,3
2022/4/2 7:00,11,-5,2,2,1,4,3,1,-8,-8,2
2022/4/2 8:00,-2,-7,2,2,1,2,2,0,-9,-9,1
2022/4/2 9:00,-12,-10,2,2,1,1,1,0,-9,-9,1
2022/4/2 10:00,-17,-11,2,2,1,0,1,0,-8,-8,1
2022/4/2 11:00,-17,-11,1,2,1,0,0,0,-9,-9,1
2022/4/2 12:00,-20,-11,1,2,1,0,0,0,-9,-9,1
2022/4/2 13:00,-21,-10,1,1,1,0,0,-1,-9,-9,0
2022/4/2 14:00,-22,-11,1,1,1,0,0,0,-9,-9,1
2022/4/2 15:00,-18,-9,1,1,1,0,0,0,-8,-8,1
2022/4/2 16:00,-12,-8,2,2,1,1,1,0,-8,-8,1
2022/4/2 17:00,1,-5,2,2,1,2,2,1,-7,-8,2
2022/4/2 18:00,13,-3,2,2,1,3,2,1,-7,-7,3
2022/4/2 19:00,17,-3,2,2,1,4,3,1,-7,-7,3
2022/4/2 20:00,17,-3,2,3,1,4,3,1,-7,-7,3
2022/4/2 21:00,16,-3,2,2,1,4,3,1,-7,-7,3
2022/4/2 22:00,14,-3,2,2,1,3,3,1,-7,-7,2
2022/4/2 23:00,13,-3,2,2,1,3,3,1,-8,-8,2
2022/4/3 0:00,14,-3,2,2,1,3,2,1,-8,-8,2
2022/4/3 1:00,14,-3,2,2,1,3,2,1,-8,-8,2
2022/4/3 2:00,14,-3,2,2,1,3,3,1,-8,-8,2
2022/4/3 3:00,16,-3,2,2,1,3,3,1,-8,-7,2
2022/4/3 4:00,16,-3,2,2,1,4,3,1,-8,-8,2
2022/4/3 5:00,17,-3,2,2,1,4,3,1,-8,-8,2
2022/4/3 6:00,16,-3,2,2,1,4,3,1,-8,-8,2
2022/4/3 7:00,10,-5,2,2,1,3,3,1,-8,-8,2
2022/4/3 8:00,1,-7,2,2,1,2,2,1,-9,-9,1
2022/4/3 9:00,-6,-9,2,2,1,2,1,0,-9,-9,1
2022/4/3 10:00,-12,-11,1,1,1,1,1,0,-9,-10,1
2022/4/3 11:00,-16,-12,1,1,1,0,0,0,-10,-10,0
2022/4/3 12:00,-16,-12,1,1,1,0,0,0,-10,-10,0
2022/4/3 13:00,-16,-12,1,2,1,0,0,0,-10,-10,0
2022/4/3 14:00,-21,-11,1,1,1,0,0,-1,-10,-10,0
2022/4/3 15:00,-21,-9,1,1,1,0,0,0,-9,-10,0
2022/4/3 16:00,-14,-8,1,1,1,1,1,0,-9,-9,1
2022/4/3 17:00,-1,-5,2,2,1,2,2,1,-8,-8,2
2022/4/3 18:00,12,-4,2,2,1,3,2,1,-8,-8,2
2022/4/3 19:00,13,-6,2,2,1,4,3,1,-7,-7,3
2022/4/3 20:00,12,-7,2,3,1,4,3,1,-7,-7,3
2022/4/3 21:00,11,-8,2,3,1,4,3,1,-7,-7,3
2022/4/3 22:00,9,-8,2,2,1,4,3,1,-7,-7,2
2022/4/3 23:00,7,-8,2,2,1,3,2,1,-8,-8,2
2022/4/4 0:00,9,-8,2,2,1,3,3,1,-8,-8,2
2022/4/4 1:00,4,-13,2,2,1,3,2,1,-8,-8,2
2022/4/4 2:00,-1,-18,2,2,1,3,2,1,-8,-8,2
2022/4/4 3:00,-1,-19,2,2,1,4,2,1,-8,-8,2
2022/4/4 4:00,1,-19,2,2,1,4,3,1,-7,-7,2
2022/4/4 5:00,2,-19,2,2,1,4,3,1,-7,-7,3
2022/4/4 6:00,2,-20,2,2,1,4,3,1,-7,-7,3
2022/4/4 7:00,-7,-22,2,2,1,4,3,1,-8,-8,2
2022/4/4 8:00,-19,-24,2,2,1,2,2,0,-9,-9,1
2022/4/4 9:00,-15,-14,2,2,1,1,1,0,-8,-8,1
2022/4/4 10:00,-21,-16,2,2,1,1,1,0,-8,-8,1
2022/4/4 11:00,-23,-16,1,2,1,0,1,0,-8,-8,1
2022/4/4 12:00,-24,-16,2,2,1,0,1,0,-8,-8,1
2022/4/4 13:00,-25,-16,1,1,1,0,0,0,-9,-9,1
2022/4/4 14:00,-23,-15,1,1,1,0,1,0,-9,-9,1
2022/4/4 15:00,-25,-19,1,2,1,1,1,0,-9,-9,1
2022/4/4 16:00,-25,-22,2,2,1,1,1,0,-8,-8,1
2022/4/4 17:00,-13,-21,2,2,1,3,2,1,-7,-7,2
2022/4/4 18:00,-2,-19,2,2,1,3,3,1,-7,-7,3
2022/4/4 19:00,2,-19,2,3,1,4,3,1,-7,-7,3
2022/4/4 20:00,1,-20,2,2,1,4,3,1,-7,-7,3
2022/4/4 21:00,0,-20,2,2,1,4,3,1,-7,-7,3
2022/4/4 22:00,-3,-20,2,2,1,4,3,1,-7,-7,3
2022/4/4 23:00,-4,-20,2,2,1,3,2,1,-8,-8,2
2022/4/5 0:00,-3,-20,2,2,1,3,3,1,-8,-8,2
2022/4/5 1:00,-4,-20,2,2,1,3,2,1,-8,-8,2
2022/4/5 2:00,-3,-20,2,2,1,3,2,1,-8,-8,2
2022/4/5 3:00,-2,-20,2,2,1,3,2,1,-8,-8,2
2022/4/5 4:00,0,-19,2,2,1,4,3,1,-7,-7,2
2022/4/5 5:00,1,-20,2,2,1,4,3,1,-7,-7,3
2022/4/5 6:00,0,-20,2,2,1,4,3,1,-7,-7,3
2022/4/5 7:00,-7,-22,2,2,1,4,3,1,-8,-8,2
2022/4/5 8:00,-5,-12,2,2,1,2,2,0,-8,-8,2
2022/4/5 9:00,-14,-14,2,2,1,1,1,0,-8,-8,1
2022/4/5 10:00,-20,-16,2,2,1,1,1,0,-8,-8,1
2022/4/5 11:00,-23,-17,2,2,1,0,1,0,-8,-8,1
2022/4/5 12:00,-24,-17,2,2,1,0,1,0,-8,-8,1
2022/4/5 13:00,-25,-16,2,2,1,0,0,-1,-8,-8,1
2022/4/5 14:00,-23,-15,1,2,1,0,1,0,-8,-8,1
2022/4/5 15:00,-24,-18,2,2,1,1,1,0,-8,-8,1
2022/4/5 16:00,-24,-22,2,2,1,1,1,0,-8,-8,1
2022/4/5 17:00,-13,-21,2,2,1,3,2,1,-7,-7,2
2022/4/5 18:00,-2,-19,2,2,1,3,3,1,-7,-7,3
2022/4/5 19:00,1,-20,3,3,1,4,3,1,-7,-7,3
2022/4/5 20:00,1,-20,3,3,1,4,3,1,-7,-7,3
2022/4/5 21:00,-1,-20,2,2,1,4,3,1,-7,-7,3
2022/4/5 22:00,-4,-20,2,2,1,4,3,1,-7,-7,3
2022/4/5 23:00,-5,-20,2,2,1,3,3,1,-7,-7,2
2022/4/6 0:00,-5,-20,2,2,1,3,3,1,-8,-8,2
2022/4/6 1:00,-5,-20,2,2,1,3,2,1,-8,-8,2
2022/4/6 2:00,-4,-19,2,2,1,3,2,1,-8,-8,2
2022/4/6 3:00,-2,-19,2,2,1,3,2,1,-7,-7,2
2022/4/6 4:00,0,-19,2,2,1,3,3,1,-7,-7,3
2022/4/6 5:00,0,-19,2,2,1,4,3,1,-7,-7,3
2022/4/6 6:00,-1,-20,2,2,1,4,3,1,-7,-7,3
2022/4/6 7:00,-3,-20,2,2,1,4,3,1,-8,-8,2
2022/4/6 8:00,4,-11,2,2,1,3,2,1,-8,-8,2
2022/4/6 9:00,3,-10,2,2,1,3,2,1,-8,-8,2
2022/4/6 10:00,0,-9,2,2,1,1,1,0,-8,-8,2
2022/4/6 11:00,2,-9,2,2,1,2,1,1,-8,-8,1
2022/4/6 12:00,9,-8,2,2,1,3,2,1,-8,-8,1
2022/4/6 13:00,7,-10,2,2,1,3,3,1,-7,-7,2
2022/4/6 14:00,4,-9,2,2,1,3,2,1,-7,-7,2
2022/4/6 15:00,-8,-15,2,2,1,2,1,0,-8,-8,1
2022/4/6 16:00,-13,-21,2,2,1,2,2,1,-8,-8,1
2022/4/6 17:00,-10,-21,2,2,1,3,2,1,-8,-8,2
2022/4/6 18:00,-2,-19,2,3,1,4,3,1,-7,-7,2
2022/4/6 19:00,1,-20,3,3,1,4,3,1,-7,-7,3
2022/4/6 20:00,1,-20,3,3,1,4,3,1,-7,-7,3
2022/4/6 21:00,0,-20,2,3,1,4,3,1,-7,-7,3
2022/4/6 22:00,-2,-20,2,2,1,4,3,1,-7,-7,2
2022/4/6 23:00,-4,-20,2,2,1,3,3,1,-8,-8,2
2022/4/7 0:00,-3,-20,2,2,1,4,3,1,-8,-8,2
2022/4/7 1:00,-4,-20,2,2,1,3,2,1,-8,-8,2
2022/4/7 2:00,-3,-19,2,2,1,3,2,1,-8,-8,2
2022/4/7 3:00,-1,-19,2,2,1,3,3,1,-8,-8,3
2022/4/7 4:00,1,-19,2,2,1,4,3,1,-7,-7,3
2022/4/7 5:00,2,-20,2,2,1,4,3,1,-7,-7,3
2022/4/7 6:00,1,-20,2,2,1,4,3,1,-7,-7,3
2022/4/7 7:00,-6,-22,2,2,1,3,3,1,-7,-7,3
2022/4/7 8:00,-6,-12,2,2,1,2,2,0,-8,-8,2
2022/4/7 9:00,-14,-14,2,2,1,1,1,0,-8,-8,2
2022/4/7 10:00,-19,-15,2,2,1,1,1,0,-8,-8,1
2022/4/7 11:00,-22,-16,2,2,1,0,0,0,-8,-8,1
2022/4/7 12:00,-23,-16,2,2,1,0,0,0,-8,-8,1
2022/4/7 13:00,-24,-15,2,2,1,0,0,0,-9,-9,1
2022/4/7 14:00,-21,-14,2,2,1,0,0,0,-8,-8,1
2022/4/7 15:00,-22,-17,2,2,1,1,1,0,-8,-8,1
2022/4/7 16:00,-14,-19,2,2,1,2,2,1,-8,-8,2
2022/4/7 17:00,-2,-19,2,2,1,4,3,1,-7,-7,3
2022/4/7 18:00,2,-19,2,3,1,4,3,1,-7,-7,3
2022/4/7 19:00,3,-19,3,3,1,4,3,1,-7,-7,3
2022/4/7 20:00,2,-20,2,3,1,4,3,1,-7,-7,3
2022/4/7 21:00,1,-20,2,3,1,4,3,1,-7,-7,3
2022/4/7 22:00,-2,-20,2,2,1,4,3,1,-7,-7,3
2022/4/7 23:00,-4,-20,2,2,1,3,3,1,-7,-7,3
2022/4/8 0:00,-3,-20,2,2,1,4,3,1,-8,-8,3
2022/4/8 1:00,-3,-19,2,2,1,3,3,1,-8,-8,2
2022/4/8 2:00,-2,-19,2,2,1,3,3,1,-8,-8,2
2022/4/8 3:00,-1,-19,2,2,1,4,3,1,-8,-8,2
2022/4/8 4:00,1,-19,2,2,1,4,3,1,-8,-8,2
2022/4/8 5:00,2,-19,2,2,1,4,3,1,-8,-8,2
2022/4/8 6:00,2,-19,2,2,1,4,3,1,-7,-7,3
2022/4/8 7:00,1,-20,2,2,1,4,3,1,-7,-7,3
2022/4/8 8:00,10,-8,2,2,1,3,2,1,-7,-7,3
2022/4/8 9:00,-2,-10,2,2,1,1,1,0,-7,-7,3
2022/4/8 10:00,-16,-14,2,2,1,0,1,0,-7,-7,2
2022/4/8 11:00,-20,-16,2,2,1,0,1,-1,-7,-7,2
2022/4/8 12:00,-17,-12,2,2,1,0,1,0,-8,-8,1
2022/4/8 13:00,-15,-9,2,2,1,0,0,0,-8,-8,1
2022/4/8 14:00,-12,-11,2,2,1,0,1,0,-9,-9,1
2022/4/8 15:00,-18,-17,2,2,1,1,1,0,-9,-9,1
2022/4/8 16:00,-19,-21,2,2,1,1,1,0,-8,-8,1
2022/4/8 17:00,-11,-20,2,2,1,3,2,1,-8,-8,2
2022/4/8 18:00,-1,-19,2,2,1,4,3,1,-7,-7,3
2022/4/8 19:00,3,-18,3,3,1,4,3,1,-7,-7,3
2022/4/8 20:00,3,-18,3,3,1,4,3,1,-7,-7,3
2022/4/8 21:00,1,-18,2,2,1,4,3,1,-7,-7,3
2022/4/8 22:00,-2,-18,2,2,1,4,3,1,-8,-8,2
2022/4/8 23:00,-4,-18,2,2,1,3,3,1,-8,-8,2
2022/4/9 0:00,-2,-18,2,2,1,4,3,1,-8,-8,2
2022/4/9 1:00,-3,-18,2,2,1,3,2,1,-8,-8,2
2022/4/9 2:00,-2,-18,2,2,1,3,2,1,-8,-8,2
2022/4/9 3:00,-1,-18,2,2,1,3,2,1,-8,-8,2
2022/4/9 4:00,0,-18,2,2,1,4,3,1,-8,-8,2
2022/4/9 5:00,1,-18,2,2,1,4,3,1,-8,-8,2
2022/4/9 6:00,0,-18,2,2,1,4,3,1,-8,-8,2
2022/4/9 7:00,5,-7,2,2,1,3,3,1,-8,-8,2
2022/4/9 8:00,-7,-10,2,2,1,2,2,0,-8,-8,2
2022/4/9 9:00,-16,-12,2,2,1,1,1,0,-9,-9,1
2022/4/9 10:00,-23,-14,1,2,1,0,0,-1,-9,-9,1
2022/4/9 11:00,-27,-15,1,1,1,0,0,-1,-9,-9,1
2022/4/9 12:00,-27,-15,1,2,1,0,0,-1,-9,-10,1
2022/4/9 13:00,-27,-14,1,1,1,0,0,-1,-10,-10,1
2022/4/9 14:00,-26,-13,1,1,1,0,0,-1,-10,-10,0
2022/4/9 15:00,-15,-11,2,2,1,1,1,0,-9,-10,1
2022/4/9 16:00,-1,-8,2,2,1,2,2,1,-9,-9,1
2022/4/9 17:00,-2,-13,2,2,1,3,2,1,-8,-8,2
2022/4/9 18:00,-1,-17,2,2,1,3,2,1,-8,-8,2
2022/4/9 19:00,0,-18,2,3,1,4,3,1,-8,-8,2
2022/4/9 20:00,0,-18,2,2,1,4,3,1,-8,-8,2
2022/4/9 21:00,-2,-18,2,2,1,4,3,1,-8,-8,2
2022/4/9 22:00,-4,-19,2,2,1,3,2,1,-8,-8,2
2022/4/9 23:00,-5,-18,2,2,1,3,2,1,-8,-8,2
2022/4/10 0:00,-4,-18,2,2,1,3,2,1,-8,-8,2
2022/4/10 1:00,-4,-18,2,2,1,3,2,1,-8,-8,2
2022/4/10 2:00,-3,-18,2,2,1,3,2,1,-8,-8,2
2022/4/10 3:00,-2,-18,2,2,1,3,2,1,-8,-8,2
2022/4/10 4:00,0,-18,2,2,1,4,3,1,-8,-8,2
2022/4/10 5:00,0,-18,2,2,1,4,3,1,-8,-8,2
2022/4/10 6:00,-2,-18,2,2,1,4,3,1,-8,-8,2
2022/4/10 7:00,2,-8,2,2,1,3,2,1,-8,-8,2
2022/4/10 8:00,-10,-10,2,2,1,1,1,0,-9,-9,1
2022/4/10 9:00,-17,-12,1,2,1,1,1,0,-9,-9,1
2022/4/10 10:00,-23,-13,1,1,1,0,1,0,-9,-9,1
2022/4/10 11:00,-26,-13,1,1,1,0,0,-1,-10,-10,0
2022/4/10 12:00,-25,-13,1,1,1,0,0,-1,-9,-10,1
2022/4/10 13:00,-23,-11,1,1,1,0,0,-1,-9,-9,1
2022/4/10 14:00,-15,-9,1,2,1,1,1,0,-9,-10,1
2022/4/10 15:00,-5,-7,2,2,1,2,1,0,-9,-9,2
2022/4/10 16:00,3,-7,2,2,1,3,2,1,-8,-8,2
2022/4/10 17:00,1,-12,2,2,1,3,2,1,-8,-8,2
2022/4/10 18:00,-1,-17,2,2,1,3,2,1,-8,-8,3
2022/4/10 19:00,0,-18,2,3,1,4,3,1,-7,-8,3
2022/4/10 20:00,0,-18,2,2,1,4,3,1,-7,-7,3
2022/4/10 21:00,-2,-18,2,2,1,3,3,1,-8,-8,2
2022/4/10 22:00,-4,-19,2,2,1,3,2,1,-8,-8,2
2022/4/10 23:00,-6,-19,2,2,1,3,2,1,-8,-8,2
2022/4/11 0:00,-5,-19,2,2,1,3,2,1,-8,-8,2
2022/4/11 1:00,-5,-18,2,2,1,3,2,1,-8,-8,2
2022/4/11 2:00,-4,-18,2,2,1,3,2,1,-8,-8,2
2022/4/11 3:00,-2,-18,2,2,1,3,2,1,-8,-8,2
2022/4/11 4:00,-1,-18,2,2,1,3,3,1,-8,-7,3
2022/4/11 5:00,0,-18,2,2,1,4,3,1,-7,-7,3
2022/4/11 6:00,0,-18,2,2,1,4,3,1,-7,-7,3
2022/4/11 7:00,-6,-20,2,2,1,3,3,1,-7,-7,3
2022/4/11 8:00,-15,-22,2,2,1,2,2,0,-8,-8,3
2022/4/11 9:00,-22,-23,2,2,1,1,1,0,-7,-7,2
2022/4/11 10:00,-28,-25,2,2,1,1,1,0,-8,-8,2
2022/4/11 11:00,-33,-26,2,2,1,0,1,0,-8,-8,1
2022/4/11 12:00,-33,-25,2,2,1,0,1,0,-9,-9,1
2022/4/11 13:00,-34,-25,2,2,1,0,0,0,-9,-9,1
2022/4/11 14:00,-31,-24,2,2,1,1,1,0,-9,-9,1
2022/4/11 15:00,-29,-23,2,2,1,1,1,0,-9,-9,1
2022/4/11 16:00,-22,-22,2,2,1,2,1,0,-8,-8,1
2022/4/11 17:00,-11,-20,2,2,1,3,2,1,-8,-8,2
2022/4/11 18:00,-3,-18,2,2,1,3,2,1,-8,-8,2
2022/4/11 19:00,0,-18,2,2,1,4,3,1,-8,-8,2
2022/4/11 20:00,0,-18,2,2,1,4,3,1,-8,-8,2
2022/4/11 21:00,-2,-18,2,2,1,3,3,1,-7,-8,2
2022/4/11 22:00,-4,-18,2,2,1,3,2,1,-8,-8,2
2022/4/11 23:00,-5,-18,2,2,1,3,2,1,-7,-7,3
2022/4/12 0:00,-5,-18,2,2,1,3,2,1,-7,-7,3
2022/4/12 1:00,-5,-18,2,2,1,3,2,1,-8,-8,2
2022/4/12 2:00,-4,-18,2,2,1,3,2,1,-8,-8,2
2022/4/12 3:00,-3,-18,2,2,1,3,2,1,-7,-7,3
2022/4/12 4:00,-1,-18,2,2,1,3,3,1,-7,-7,3
2022/4/12 5:00,-1,-18,2,2,1,4,3,1,-7,-7,3
2022/4/12 6:00,-1,-18,2,2,1,4,3,1,-7,-7,3
2022/4/12 7:00,5,-8,2,2,1,3,3,1,-8,-8,2
2022/4/12 8:00,-6,-10,2,2,1,2,2,0,-9,-9,1
2022/4/12 9:00,-13,-12,2,2,1,1,1,0,-9,-9,1
2022/4/12 10:00,-19,-14,2,2,1,1,1,0,-9,-9,1
2022/4/12 11:00,-24,-15,1,1,1,0,0,0,-9,-9,1
2022/4/12 12:00,-23,-14,2,2,1,0,0,0,-9,-9,1
2022/4/12 13:00,-24,-14,1,1,1,0,0,0,-9,-9,1
2022/4/12 14:00,-21,-12,1,1,1,0,1,0,-9,-9,1
2022/4/12 15:00,-17,-11,2,2,1,1,1,0,-9,-9,1
2022/4/12 16:00,-7,-9,2,2,1,2,2,0,-8,-8,1
2022/4/12 17:00,3,-7,2,2,1,3,2,1,-8,-8,2
2022/4/12 18:00,13,-4,2,2,1,4,3,1,-7,-7,2
2022/4/12 19:00,13,-6,2,2,1,4,3,1,-7,-7,3
2022/4/12 20:00,4,-15,2,2,1,4,3,1,-7,-7,3
2022/4/12 21:00,-3,-20,2,2,1,4,3,1,-7,-7,3
2022/4/12 22:00,-5,-20,2,2,1,4,3,1,-7,-7,3
2022/4/12 23:00,-7,-20,2,2,1,3,3,1,-7,-7,3
2022/4/13 0:00,-7,-20,2,2,1,3,2,1,-8,-8,2
2022/4/13 1:00,-7,-20,2,2,1,3,2,1,-8,-8,2
2022/4/13 2:00,-7,-20,2,2,1,3,2,1,-8,-8,2
2022/4/13 3:00,-6,-20,2,2,1,3,2,1,-8,-8,2
2022/4/13 4:00,-4,-20,2,2,1,3,2,1,-8,-8,2
2022/4/13 5:00,-4,-20,2,2,1,4,3,1,-7,-7,3
2022/4/13 6:00,-4,-21,2,2,1,4,3,1,-7,-7,3
2022/4/13 7:00,-5,-21,2,2,1,4,3,1,-8,-8,2
2022/4/13 8:00,-8,-22,2,2,1,3,3,1,-8,-8,2
2022/4/13 9:00,-5,-22,2,2,1,4,3,1,-7,-7,2
2022/4/13 10:00,-5,-23,2,2,1,3,3,1,-7,-7,2
2022/4/13 11:00,-8,-22,2,2,1,3,2,1,-7,-7,2
2022/4/13 12:00,-9,-22,2,2,1,3,2,1,-7,-7,2
2022/4/13 13:00,-8,-22,2,2,1,3,2,1,-7,-8,2
2022/4/13 14:00,-4,-22,2,2,1,3,3,1,-7,-7,3
2022/4/13 15:00,-5,-21,2,2,1,3,2,1,-7,-7,3
2022/4/13 16:00,-3,-22,2,2,1,4,3,1,-7,-7,3
2022/4/13 17:00,-2,-21,2,2,1,4,3,1,-7,-7,3
2022/4/13 18:00,-1,-20,2,3,1,4,3,1,-7,-7,2
2022/4/13 19:00,-1,-21,3,3,1,4,3,1,-7,-7,3
2022/4/13 20:00,-2,-21,2,3,1,4,3,1,-8,-8,2
2022/4/13 21:00,-3,-21,2,2,1,4,3,1,-8,-8,2
2022/4/13 22:00,-6,-21,2,2,1,4,3,1,-8,-8,2
2022/4/13 23:00,-8,-21,2,2,1,3,3,1,-8,-8,2
2022/4/14 0:00,-7,-21,2,2,1,3,2,1,-8,-8,2
2022/4/14 1:00,-8,-21,2,2,1,3,2,1,-8,-8,2
2022/4/14 2:00,-7,-21,2,2,1,3,2,1,-8,-8,2
2022/4/14 3:00,-5,-21,2,2,1,3,2,1,-8,-8,2
2022/4/14 4:00,-4,-21,2,2,1,3,3,1,-8,-8,2
2022/4/14 5:00,-3,-21,2,2,1,4,3,1,-8,-8,2
2022/4/14 6:00,-3,-21,2,2,1,4,3,1,-8,-8,2
2022/4/14 7:00,-7,-23,2,2,1,4,3,1,-8,-8,2
2022/4/14 8:00,-9,-23,2,2,1,3,2,1,-8,-8,2
2022/4/14 9:00,-12,-25,2,2,1,3,2,1,-9,-9,1
2022/4/14 10:00,-14,-23,2,2,1,2,1,0,-9,-9,1
2022/4/14 11:00,-21,-25,2,2,1,1,1,0,-9,-9,1
2022/4/14 12:00,-23,-27,2,2,1,1,1,0,-9,-9,1
2022/4/14 13:00,-25,-27,2,2,1,0,0,0,-9,-9,1
2022/4/14 14:00,-23,-27,2,2,1,1,1,0,-9,-9,1
2022/4/14 15:00,-21,-26,2,2,1,2,2,0,-8,-8,1
2022/4/14 16:00,-15,-23,2,2,1,2,2,1,-7,-7,2
2022/4/14 17:00,-7,-22,2,2,1,3,3,1,-7,-7,2
2022/4/14 18:00,-3,-21,2,2,1,4,3,1,-7,-7,3
2022/4/14 19:00,0,-21,3,3,1,4,3,1,-7,-7,3
2022/4/14 20:00,0,-21,2,3,1,4,3,1,-8,-8,3
2022/4/14 21:00,-2,-21,2,2,1,4,3,1,-8,-8,2
2022/4/14 22:00,-5,-21,2,2,1,4,3,1,-8,-8,2
2022/4/14 23:00,-7,-21,2,2,1,3,3,1,-8,-8,2
2022/4/15 0:00,-6,-21,2,2,1,3,3,1,-8,-8,2
2022/4/15 1:00,-7,-21,2,2,1,3,2,1,-8,-8,2
2022/4/15 2:00,-6,-21,2,2,1,3,2,1,-8,-8,2
2022/4/15 3:00,-5,-21,2,2,1,3,2,1,-8,-8,2
2022/4/15 4:00,-3,-21,2,2,1,4,3,1,-8,-8,2
2022/4/15 5:00,-2,-21,2,2,1,4,3,1,-8,-8,2
2022/4/15 6:00,-2,-21,2,2,1,4,3,1,-8,-8,2
2022/4/15 7:00,-4,-21,2,2,1,4,3,1,-8,-8,2
2022/4/15 8:00,-8,-22,2,2,1,3,2,1,-8,-8,2
2022/4/15 9:00,-9,-22,2,2,1,3,2,1,-7,-7,2
2022/4/15 10:00,-10,-22,2,2,1,3,2,1,-7,-7,2
2022/4/15 11:00,-16,-23,2,2,1,2,2,1,-7,-7,2
2022/4/15 12:00,-18,-23,2,2,1,1,1,1,-7,-7,2
2022/4/15 13:00,-14,-23,2,2,1,2,2,1,-8,-8,2
2022/4/15 14:00,-10,-22,2,2,1,2,2,1,-7,-7,2
2022/4/15 15:00,-7,-22,2,2,1,3,2,1,-7,-7,2
2022/4/15 16:00,-7,-22,2,2,1,3,2,1,-7,-7,2
2022/4/15 17:00,-5,-22,2,2,1,4,3,1,-7,-7,2
2022/4/15 18:00,-2,-21,2,2,1,4,3,1,-8,-8,3
2022/4/15 19:00,0,-21,2,3,1,4,3,1,-7,-7,3
2022/4/15 20:00,0,-20,2,2,1,4,3,1,-8,-8,3
2022/4/15 21:00,-2,-20,2,2,1,4,3,1,-8,-8,3
2022/4/15 22:00,-4,-20,2,2,1,4,3,1,-8,-8,2
2022/4/15 23:00,-6,-20,2,2,1,3,3,1,-8,-8,2
2022/4/16 0:00,-5,-20,2,2,1,3,3,1,-8,-8,2
2022/4/16 1:00,-5,-20,2,2,1,3,2,1,-8,-8,2
2022/4/16 2:00,-4,-20,2,2,1,3,2,1,-8,-8,2
2022/4/16 3:00,-3,-19,2,2,1,3,2,1,-8,-8,2
2022/4/16 4:00,-1,-19,2,2,1,4,3,1,-8,-8,2
2022/4/16 5:00,-1,-20,2,2,1,4,3,1,-8,-8,3
2022/4/16 6:00,-3,-20,2,2,1,4,3,1,-8,-8,2
2022/4/16 7:00,-9,-22,2,2,1,3,3,1,-8,-8,2
2022/4/16 8:00,-17,-24,2,2,1,3,2,1,-8,-8,2
2022/4/16 9:00,-26,-27,2,2,1,2,1,0,-8,-8,2
2022/4/16 10:00,-32,-28,1,1,1,1,1,0,-9,-9,1
2022/4/16 11:00,-38,-28,1,1,1,0,0,0,-9,-9,1
2022/4/16 12:00,-41,-29,1,1,1,0,0,-1,-9,-9,1
2022/4/16 13:00,-41,-29,1,1,1,0,0,-1,-9,-9,1
2022/4/16 14:00,-40,-28,1,1,1,0,0,0,-9,-9,1
2022/4/16 15:00,-37,-26,1,1,1,0,0,0,-9,-9,1
2022/4/16 16:00,-31,-25,1,2,1,1,1,0,-9,-9,1
2022/4/16 17:00,-18,-22,2,2,1,2,2,0,-8,-8,2
2022/4/16 18:00,-6,-20,2,2,1,3,3,1,-8,-8,2
2022/4/16 19:00,-1,-19,2,2,1,4,3,1,-7,-7,3
2022/4/16 20:00,1,-18,2,2,1,4,3,1,-7,-7,3
2022/4/16 21:00,0,-18,2,2,1,4,3,1,-7,-7,3
2022/4/16 22:00,-2,-18,2,2,1,3,3,1,-7,-7,3
2022/4/16 23:00,-4,-18,2,2,1,3,2,1,-8,-8,3
2022/4/17 0:00,-3,-18,2,2,1,3,2,1,-8,-7,3
2022/4/17 1:00,-3,-18,2,2,1,3,2,1,-7,-7,3
2022/4/17 2:00,-3,-18,2,2,1,3,2,1,-8,-8,3
2022/4/17 3:00,-2,-18,2,2,1,3,2,1,-8,-8,2
2022/4/17 4:00,-1,-18,2,2,1,4,3,1,-8,-8,3
2022/4/17 5:00,0,-19,2,2,1,4,3,1,-8,-8,3
2022/4/17 6:00,-2,-19,2,2,1,4,3,1,-8,-8,2
2022/4/17 7:00,-10,-20,2,2,1,3,2,1,-8,-8,2
2022/4/17 8:00,-18,-20,2,2,1,2,2,0,-9,-9,1
2022/4/17 9:00,-19,-21,2,2,1,2,1,0,-9,-9,1
2022/4/17 10:00,-24,-22,2,2,1,1,1,0,-9,-10,1
2022/4/17 11:00,-31,-24,1,1,1,0,0,0,-9,-10,1
2022/4/17 12:00,-37,-26,1,2,1,0,0,-1,-9,-9,1
2022/4/17 13:00,-34,-26,1,1,1,0,1,-1,-9,-9,1
2022/4/17 14:00,-35,-24,1,1,1,0,0,-1,-9,-9,1
2022/4/17 15:00,-30,-22,1,1,1,0,0,0,-9,-9,1
2022/4/17 16:00,-20,-20,2,2,1,1,1,0,-9,-9,1
2022/4/17 17:00,-8,-19,2,2,1,2,2,1,-8,-9,2
2022/4/17 18:00,-2,-18,2,2,1,3,2,1,-8,-8,2
2022/4/17 19:00,0,-18,2,2,1,4,3,1,-8,-8,2
2022/4/17 20:00,0,-18,2,2,1,4,3,1,-8,-8,3
2022/4/17 21:00,-2,-18,2,2,1,4,3,1,-8,-8,3
2022/4/17 22:00,-4,-18,2,2,1,3,2,1,-8,-8,2
2022/4/17 23:00,-6,-18,2,2,1,3,2,1,-8,-8,2
2022/4/18 0:00,-5,-18,2,2,1,3,2,1,-8,-8,2
2022/4/18 1:00,-5,-18,2,2,1,3,2,1,-8,-8,2
2022/4/18 2:00,-4,-18,2,2,1,3,2,1,-8,-8,2
2022/4/18 3:00,-2,-18,2,2,1,3,2,1,-8,-8,2
2022/4/18 4:00,-1,-18,2,2,1,3,3,1,-8,-8,2
2022/4/18 5:00,0,-18,2,2,1,4,3,1,-8,-8,3
2022/4/18 6:00,-1,-19,2,2,1,4,3,1,-8,-8,3
2022/4/18 7:00,-7,-20,2,2,1,3,2,1,-8,-8,2
2022/4/18 8:00,-18,-22,2,2,1,2,2,0,-9,-9,2
2022/4/18 9:00,-19,-22,2,2,1,1,1,0,-9,-9,1
2022/4/18 10:00,-20,-24,2,2,1,2,2,0,-8,-9,1
2022/4/18 11:00,-23,-25,2,2,1,2,1,0,-9,-9,1
2022/4/18 12:00,-17,-22,2,2,1,1,1,0,-8,-8,1
2022/4/18 13:00,-17,-21,2,2,1,1,1,0,-9,-9,1
2022/4/18 14:00,-20,-22,2,2,1,2,2,0,-8,-8,1
2022/4/18 15:00,-17,-22,2,2,1,2,2,0,-8,-8,2
2022/4/18 16:00,-10,-20,2,2,1,3,2,1,-7,-7,2
2022/4/18 17:00,-4,-19,2,2,1,3,2,1,-7,-7,3
2022/4/18 18:00,0,-18,2,2,1,4,3,1,-7,-7,3
2022/4/18 19:00,2,-18,2,2,1,4,3,1,-7,-7,3
2022/4/18 20:00,1,-18,2,2,1,4,3,1,-7,-7,3
2022/4/18 21:00,-1,-18,2,2,1,4,3,1,-8,-7,3
2022/4/18 22:00,-3,-18,2,2,1,3,3,1,-8,-8,3
2022/4/18 23:00,-5,-18,2,2,1,3,2,1,-8,-8,2
2022/4/19 0:00,-4,-18,2,2,1,3,2,1,-8,-8,3
2022/4/19 1:00,-5,-18,2,2,1,3,2,1,-8,-8,2
2022/4/19 2:00,-4,-18,2,2,1,3,2,1,-8,-8,2
2022/4/19 3:00,-3,-18,2,2,1,3,2,1,-8,-8,2
2022/4/19 4:00,-2,-18,2,2,1,3,3,1,-8,-8,2
2022/4/19 5:00,-1,-18,2,2,1,4,3,1,-8,-8,2
2022/4/19 6:00,-1,-19,2,2,1,4,3,1,-7,-7,3
2022/4/19 7:00,-8,-21,2,2,1,3,3,1,-7,-7,3
2022/4/19 8:00,-19,-23,2,2,1,2,2,0,-8,-8,2
2022/4/19 9:00,-27,-25,2,2,1,1,1,0,-9,-9,1
2022/4/19 10:00,-31,-26,2,2,1,1,1,0,-9,-9,1
2022/4/19 11:00,-35,-27,1,1,1,0,1,0,-9,-9,1
2022/4/19 12:00,-35,-27,1,2,1,1,1,0,-9,-9,1
2022/4/19 13:00,-37,-26,1,1,1,0,1,0,-9,-9,1
2022/4/19 14:00,-34,-25,1,2,1,0,1,0,-9,-9,1
2022/4/19 15:00,-31,-24,1,1,1,1,1,0,-8,-8,1
2022/4/19 16:00,-25,-22,2,2,1,2,1,0,-8,-8,1
2022/4/19 17:00,-14,-20,2,2,1,3,2,1,-8,-8,2
2022/4/19 18:00,-3,-18,2,2,1,3,2,1,-7,-7,3
2022/4/19 19:00,1,-18,2,2,1,4,3,1,-7,-7,3
2022/4/19 20:00,2,-18,2,2,1,4,3,1,-7,-7,3
2022/4/19 21:00,0,-18,2,2,1,4,3,1,-7,-7,3
2022/4/19 22:00,-3,-18,2,2,1,4,3,1,-8,-8,2
2022/4/19 23:00,-5,-18,2,2,1,3,3,1,-8,-8,2
2022/4/20 0:00,-4,-18,2,2,1,3,2,1,-8,-8,2
2022/4/20 1:00,-4,-18,2,2,1,3,2,1,-8,-8,2
2022/4/20 2:00,-4,-18,2,2,1,3,2,1,-8,-8,2
2022/4/20 3:00,-2,-18,2,2,1,3,2,1,-8,-8,3
2022/4/20 4:00,-1,-18,2,2,1,4,3,1,-8,-8,3
2022/4/20 5:00,0,-18,2,2,1,4,3,1,-7,-7,3
2022/4/20 6:00,-2,-19,2,2,1,4,3,1,-8,-8,3
2022/4/20 7:00,-9,-21,2,2,1,3,2,1,-8,-8,2
2022/4/20 8:00,-20,-23,2,2,1,2,2,0,-9,-9,1
2022/4/20 9:00,-27,-24,2,2,1,1,1,0,-9,-9,1
2022/4/20 10:00,-32,-26,2,2,1,1,1,0,-9,-9,1
2022/4/20 11:00,-35,-26,1,2,1,0,1,0,-8,-9,1
2022/4/20 12:00,-35,-26,2,2,1,0,1,0,-8,-8,1
2022/4/20 13:00,-36,-26,1,1,1,0,1,0,-9,-9,1
2022/4/20 14:00,-33,-25,1,2,1,0,1,0,-8,-8,1
2022/4/20 15:00,-30,-23,2,2,1,1,1,0,-8,-8,1
2022/4/20 16:00,-24,-22,2,2,1,1,1,0,-8,-8,1
2022/4/20 17:00,-13,-20,2,2,1,2,2,1,-7,-7,2
2022/4/20 18:00,-3,-18,2,2,1,3,2,1,-7,-8,2
2022/4/20 19:00,1,-18,2,3,1,4,3,1,-7,-7,3
2022/4/20 20:00,1,-18,2,2,1,4,3,1,-7,-7,3
2022/4/20 21:00,-1,-18,2,2,1,4,3,1,-8,-8,3
2022/4/20 22:00,-3,-18,2,2,1,4,3,1,-8,-8,2
2022/4/20 23:00,-5,-18,2,2,1,3,2,1,-8,-8,2
2022/4/21 0:00,-5,-18,2,2,1,3,2,1,-8,-8,2
2022/4/21 1:00,-5,-18,2,2,1,3,2,1,-8,-8,2
2022/4/21 2:00,-4,-18,2,2,1,3,2,1,-8,-8,2
2022/4/21 3:00,-3,-18,2,2,1,3,2,1,-8,-8,2
2022/4/21 4:00,-2,-18,2,2,1,3,2,1,-8,-8,2
2022/4/21 5:00,-1,-18,2,2,1,4,3,1,-8,-8,2
2022/4/21 6:00,-2,-19,2,2,1,4,3,1,-8,-8,2
2022/4/21 7:00,-9,-21,2,2,1,3,3,1,-8,-8,2
2022/4/21 8:00,-21,-23,2,2,1,2,2,0,-9,-9,1
2022/4/21 9:00,-28,-25,2,2,1,1,1,0,-9,-9,1
2022/4/21 10:00,-33,-26,2,2,1,1,1,0,-9,-9,1
2022/4/21 11:00,-35,-27,1,2,1,0,1,0,-9,-9,1
2022/4/21 12:00,-36,-26,2,2,1,0,1,0,-9,-9,1
2022/4/21 13:00,-36,-26,1,1,1,0,0,0,-9,-9,1
2022/4/21 14:00,-33,-25,1,2,1,1,1,0,-9,-9,1
2022/4/21 15:00,-31,-24,1,1,1,1,1,0,-8,-9,1
2022/4/21 16:00,-24,-22,2,2,1,2,1,0,-8,-8,1
2022/4/21 17:00,-12,-20,2,2,1,3,2,1,-7,-7,2
2022/4/21 18:00,-4,-18,2,2,1,3,2,1,-7,-7,3
2022/4/21 19:00,0,-18,2,2,1,4,3,1,-7,-7,3
2022/4/21 20:00,0,-18,2,2,1,4,3,1,-7,-7,3
2022/4/21 21:00,-1,-18,2,2,1,4,3,1,-7,-7,3
2022/4/21 22:00,-4,-18,2,2,1,3,3,1,-8,-8,3
2022/4/21 23:00,-6,-18,2,2,1,3,2,1,-8,-8,2
2022/4/22 0:00,-6,-18,2,2,1,3,2,1,-8,-8,2
2022/4/22 1:00,-6,-18,2,2,1,3,2,1,-8,-8,2
2022/4/22 2:00,-5,-18,2,2,1,3,2,1,-8,-8,2
2022/4/22 3:00,-4,-18,2,2,1,3,2,1,-8,-8,2
2022/4/22 4:00,-3,-18,2,2,1,3,2,1,-8,-8,3
2022/4/22 5:00,-2,-18,2,2,1,4,3,1,-7,-7,3
2022/4/22 6:00,-2,-18,2,2,1,4,3,1,-7,-7,3
2022/4/22 7:00,-4,-19,2,2,1,4,3,1,-7,-7,3
2022/4/22 8:00,-6,-19,2,2,1,3,3,1,-7,-7,3
2022/4/22 9:00,-4,-19,2,2,1,4,3,1,-7,-7,2
2022/4/22 10:00,-12,-20,2,2,1,3,3,0,-7,-7,2
2022/4/22 11:00,-13,-21,2,2,1,3,2,1,-7,-7,2
2022/4/22 12:00,-13,-20,2,2,1,2,2,0,-7,-7,2
2022/4/22 13:00,-17,-19,2,2,1,1,1,0,-8,-8,2
2022/4/22 14:00,-19,-20,2,2,1,1,1,0,-8,-8,1
2022/4/22 15:00,-18,-22,2,2,1,1,1,0,-8,-8,1
2022/4/22 16:00,-17,-22,2,2,1,1,1,0,-8,-8,1
2022/4/22 17:00,-9,-19,2,2,1,2,2,1,-7,-7,2
2022/4/22 18:00,-1,-18,2,2,1,3,2,1,-7,-7,3
2022/4/22 19:00,0,-18,2,2,1,4,3,1,-7,-7,3
2022/4/22 20:00,0,-18,2,2,1,4,3,1,-8,-8,2
2022/4/22 21:00,-2,-18,2,2,1,4,3,1,-8,-8,2
2022/4/22 22:00,-4,-18,2,2,1,3,2,1,-8,-8,2
2022/4/22 23:00,-6,-18,2,2,1,3,2,1,-8,-8,2
2022/4/23 0:00,-6,-18,2,2,1,3,2,1,-8,-8,2
2022/4/23 1:00,-6,-18,2,2,1,3,2,1,-8,-8,2
2022/4/23 2:00,-6,-18,2,2,1,3,2,1,-8,-8,2
2022/4/23 3:00,-4,-18,2,2,1,3,2,1,-8,-8,3
2022/4/23 4:00,-3,-18,2,2,1,3,2,1,-8,-8,3
2022/4/23 5:00,-3,-18,2,2,1,3,3,1,-8,-8,2
2022/4/23 6:00,-5,-19,2,2,1,3,2,1,-8,-8,2
2022/4/23 7:00,-12,-20,2,2,1,3,2,1,-8,-9,2
2022/4/23 8:00,-18,-21,2,2,1,2,1,0,-9,-9,1
2022/4/23 9:00,-23,-22,1,1,1,1,1,0,-9,-9,1
2022/4/23 10:00,-27,-23,1,1,1,1,1,0,-9,-9,2
2022/4/23 11:00,-32,-25,1,1,1,2,2,0,-9,-9,1
2022/4/23 12:00,-40,-27,1,1,1,0,0,-1,-10,-10,1
2022/4/23 13:00,-38,-25,1,1,1,0,0,-1,-10,-10,0
2022/4/23 14:00,-28,-20,1,1,1,0,0,0,-10,-10,0
2022/4/23 15:00,-22,-19,1,1,1,0,0,0,-10,-10,0